Location: Muck Cross
(36.7179°N, 78.3678°W)
Time: 10:11:06
(UTC+00:00)

A-11 Canister half - All Passes

Search period start: 29 March 2023 00:00
Search period end: 08 April 2023 00:00
Orbit: 1526 x 1682 km, 47.3° (Epoch: 28 March)

Date Brightness Start Highest point End Pass type
(mag) Time Alt. Az. Time Alt. Az. Time Alt. Az.
29 Mar - 01:41:01 10° WNW 01:50:51 69° NNE 02:00:20 10° ESE visible
29 Mar - 03:46:36 10° WNW 03:55:37 46° SW 04:04:24 10° SSE visible
29 Mar - 17:02:15 10° SSE 17:06:57 14° ESE 17:11:38 10° E daylight
29 Mar - 19:00:44 10° SSW 19:10:36 58° SE 19:20:21 10° ENE daylight
29 Mar - 21:05:50 10° WSW 21:15:52 62° NNW 21:25:41 10° ENE daylight
29 Mar - 23:13:02 10° WNW 23:22:34 45° N 23:31:48 10° ENE daylight
30 Mar - 01:19:15 10° WNW 01:29:06 67° NNE 01:38:36 10° ESE visible
30 Mar - 03:24:48 10° WNW 03:33:58 49° SW 03:42:51 10° SSE visible
30 Mar - 16:41:19 10° SE 16:45:19 13° ESE 16:49:18 10° E daylight
30 Mar - 18:39:06 10° SSW 18:48:53 56° SE 18:58:35 10° ENE daylight
30 Mar - 20:44:00 10° WSW 20:54:05 64° NNW 21:03:57 10° ENE daylight
30 Mar - 22:51:13 10° WNW 23:00:45 45° N 23:10:02 10° ENE daylight
31 Mar - 00:57:29 10° WNW 01:07:21 65° NNE 01:16:50 10° ESE visible
31 Mar - 03:03:01 10° WNW 03:12:18 51° SW 03:21:18 10° SSE visible
31 Mar - 05:14:31 10° WSW 05:15:35 10° WSW 05:16:39 10° SW visible
31 Mar - 16:20:37 10° SE 16:23:41 12° ESE 16:26:44 10° ESE daylight
31 Mar - 18:17:28 10° SSW 18:27:11 53° SE 18:36:49 10° ENE daylight
31 Mar - 20:22:12 10° WSW 20:32:17 66° NNW 20:42:14 10° ENE daylight
31 Mar - 22:29:22 10° WNW 22:38:56 45° N 22:48:14 10° ENE daylight
01 Apr - 00:35:43 10° WNW 00:45:35 63° NNE 00:55:05 10° ESE visible
01 Apr - 02:41:15 10° WNW 02:50:38 54° SW 02:59:43 10° SSE visible
01 Apr - 04:51:13 10° WSW 04:53:59 11° WSW 04:56:44 10° SW visible
01 Apr - 16:00:28 10° SE 16:02:03 10° ESE 16:03:38 10° ESE daylight
01 Apr - 17:55:52 10° SSW 18:05:29 50° SE 18:15:04 10° ENE daylight
01 Apr - 20:00:24 10° WSW 20:10:31 68° NNW 20:20:30 10° ENE daylight
01 Apr - 22:07:31 10° WNW 22:17:07 46° N 22:26:28 10° ENE daylight
02 Apr - 00:13:57 10° WNW 00:23:49 61° NNE 00:33:20 10° ESE visible
02 Apr - 02:19:28 10° WNW 02:28:57 57° SW 02:38:08 10° SSE visible
02 Apr - 04:28:39 10° W 04:32:22 13° WSW 04:36:03 10° SW visible
02 Apr - 17:34:16 10° SSW 17:43:48 48° SE 17:53:16 10° ENE daylight
02 Apr - 19:38:36 10° WSW 19:48:45 70° NNW 19:58:45 10° ENE daylight
02 Apr - 21:45:41 10° WNW 21:55:18 46° N 22:04:40 10° ENE daylight
02 Apr - 23:52:10 10° WNW 00:02:03 60° NNE 00:11:33 10° E visible
03 Apr - 01:57:41 10° WNW 02:07:16 60° SW 02:16:32 10° SE visible
03 Apr - 04:06:18 10° W 04:10:45 14° WSW 04:15:10 10° SSW visible
03 Apr - 17:12:41 10° SSW 17:22:06 45° SE 17:31:30 10° ENE daylight
03 Apr - 19:16:48 10° WSW 19:26:58 72° NNW 19:37:02 10° ENE daylight
03 Apr - 21:23:50 10° WNW 21:33:29 46° N 21:42:54 10° ENE daylight
03 Apr - 23:30:25 10° WNW 23:40:16 58° NNE 23:49:47 10° E daylight
04 Apr - 01:35:55 10° WNW 01:45:36 63° SW 01:54:55 10° SE visible
04 Apr - 03:44:05 10° W 03:49:08 16° WSW 03:54:08 10° SSW visible
04 Apr - 16:51:08 10° SSW 17:00:24 43° SE 17:09:42 10° ENE daylight
04 Apr - 18:55:01 10° WSW 19:05:12 74° NNW 19:15:18 10° ENE daylight
04 Apr - 21:02:00 10° WNW 21:11:39 46° N 21:21:07 10° ENE daylight
04 Apr - 23:08:38 10° WNW 23:18:29 57° NNE 23:28:01 10° E daylight
05 Apr - 01:14:08 10° WNW 01:23:54 67° SW 01:33:19 10° SE visible
05 Apr - 03:21:56 10° W 03:27:32 17° WSW 03:33:01 10° SSW visible
05 Apr - 16:29:34 10° SSW 16:38:43 41° SE 16:47:53 10° ENE daylight
05 Apr - 18:33:15 10° WSW 18:43:26 77° NNW 18:53:33 10° ENE daylight
05 Apr - 20:40:10 10° W 20:49:50 47° N 20:59:20 10° ENE daylight
05 Apr - 22:46:51 10° WNW 22:56:42 56° NNE 23:06:14 10° E daylight
06 Apr - 00:52:22 10° WNW 01:02:12 70° SW 01:11:41 10° SE visible
06 Apr - 02:59:52 10° W 03:05:54 19° WSW 03:11:51 10° SSW visible
06 Apr - 16:08:02 10° SSW 16:17:03 38° SE 16:26:04 10° ENE daylight
06 Apr - 18:11:29 10° WSW 18:21:40 79° NNW 18:31:50 10° ENE daylight
06 Apr - 20:18:18 10° W 20:28:01 47° N 20:37:33 10° ENE daylight
06 Apr - 22:25:04 10° WNW 22:34:55 54° NNE 22:44:27 10° E daylight
07 Apr - 00:30:37 10° WNW 00:40:31 73° SW 00:50:03 10° SE visible
07 Apr - 02:37:49 10° W 02:44:17 20° SW 02:50:36 10° SSW visible
07 Apr - 15:46:31 10° SSW 15:55:22 36° SE 16:04:15 10° ENE daylight
07 Apr - 17:49:43 10° WSW 17:59:55 82° NNW 18:10:05 10° ENE daylight
07 Apr - 19:56:28 10° W 20:06:12 48° N 20:15:47 10° ENE daylight
07 Apr - 22:03:16 10° WNW 22:13:07 53° NNE 22:22:39 10° E daylight
